| time (UTC) | temp F | wind direction | speed MPH | gust MPH | rain 1hr in | rain 24hr in | rain mn in | humidity % | barometer mb |
| 20260506081603 | 53 | 0.0 | 0.0 | 0.00 | 0.00 | 0.00 | 56 | 1011.7 | |
| 20260506073054 | 52 | 0.0 | 0.0 | 0.00 | 0.00 | 0.00 | 54 | 1011.7 | |
| 20260506071552 | 53 | 0.0 | 0.0 | 0.00 | 0.00 | 0.00 | 54 | 1011.7 | |
| 20260506061556 | 48 | 0.0 | 0.0 | 0.00 | 0.00 | 0.00 | 57 | 1011.9 | |
| 20260506050113 | 45 | 0.0 | 0.0 | 0.00 | 0.00 | 0.00 | 60 | 1012.1 | |
| 20260506044554 | 44 | 0.0 | 0.0 | 0.00 | 0.00 | 0.00 | 61 | 1012.2 | |
| 20260506043050 | 43 | 0.0 | 0.0 | 0.00 | 0.00 | 0.00 | 61 | 1012.2 | |
| 20260506041601 | 43 | 0.0 | 0.0 | 0.00 | 0.00 | 0.00 | 61 | 1012.1 | |
| 20260506040057 | 43 | 0.0 | 0.0 | 0.00 | 0.00 | 0.00 | 60 | 1012.0 | |
| 20260506034601 | 43 | 0.0 | 0.0 | 0.00 | 0.00 | 0.00 | 60 | 1012.0 | |
| 20260506033053 | 43 | 0.0 | 0.0 | 0.00 | 0.00 | 0.00 | 61 | 1012.0 | |
| 20260506031552 | 43 | 0.0 | 0.0 | 0.00 | 0.00 | 0.00 | 60 | 1012.0 | |
| 20260506030056 | 43 | 0.0 | 0.0 | 0.00 | 0.00 | 0.00 | 59 | 1012.1 | |
| 20260506024556 | 43 | 0.0 | 0.0 | 0.00 | 0.00 | 0.00 | 58 | 1012.2 | |
| 20260506023109 | 43 | 0.0 | 0.0 | 0.00 | 0.00 | 0.00 | 60 | 1012.3 | |
| 20260506021552 | 43 | 0.0 | 0.0 | 0.00 | 0.00 | 0.00 | 61 | 1012.5 | |
| 20260506020056 | 44 | 0.0 | 0.0 | 0.00 | 0.00 | 0.00 | 59 | 1012.5 | |
| 20260506014555 | 44 | 0.0 | 0.0 | 0.00 | 0.00 | 0.00 | 57 | 1012.7 | |
| 20260506013100 | 44 | 0.0 | 0.0 | 0.00 | 0.00 | 0.00 | 60 | 1012.7 | |
| 20260506011552 | 44 | 0.0 | 0.0 | 0.00 | 0.00 | 0.00 | 61 | 1012.6 | |
| 20260506010051 | 45 | 0.0 | 0.0 | 0.00 | 0.00 | 0.00 | 61 | 1012.7 | |
| 20260506004600 | 45 | 0.0 | 0.0 | 0.00 | 0.00 | 0.00 | 62 | 1012.6 | |
| 20260506003055 | 44 | 0.0 | 0.0 | 0.00 | 0.00 | 0.00 | 66 | 1012.5 | |
| 20260506001558 | 42 | 0.0 | 0.0 | 0.00 | 0.00 | 0.00 | 77 | 1012.3 | |
| 20260505234555 | 43 | 0.0 | 0.0 | 0.00 | 0.00 | 0.00 | 75 | 1012.4 | |
| 20260505233054 | 43 | 0.0 | 0.0 | 0.00 | 0.00 | 0.00 | 76 | 1012.4 | |
| 20260505231554 | 43 | 0.0 | 0.0 | 0.00 | 0.00 | 0.00 | 77 | 1012.5 | |
| 20260505230118 | 43 | 0.0 | 0.0 | 0.00 | 0.00 | 0.00 | 77 | 1012.5 | |
| 20260505224555 | 43 | 0.0 | 0.0 | 0.00 | 0.00 | 0.00 | 76 | 1012.5 | |
| 20260505223058 | 43 | 0.0 | 0.0 | 0.00 | 0.00 | 0.00 | 76 | 1012.5 | |
| 20260505221559 | 44 | 0.0 | 0.0 | 0.00 | 0.00 | 0.00 | 76 | 1012.5 | |
| 20260505220104 | 44 | 0.0 | 0.0 | 0.00 | 0.00 | 0.00 | 76 | 1012.6 | |
| 20260505214559 | 45 | 0.0 | 0.0 | 0.00 | 0.00 | 0.00 | 75 | 1012.7 | |
| 20260505213104 | 45 | 0.0 | 0.0 | 0.00 | 0.00 | 0.00 | 75 | 1012.8 | |
| 20260505211603 | 45 | 0.0 | 0.0 | 0.00 | 0.00 | 0.00 | 74 | 1012.8 | |
| 20260505210106 | 45 | 0.0 | 0.0 | 0.00 | 0.00 | 0.00 | 74 | 1012.8 | |
| 20260505204605 | 45 | 0.0 | 0.0 | 0.00 | 0.00 | 0.00 | 72 | 1012.8 | |
| 20260505203106 | 46 | 0.0 | 0.0 | 0.00 | 0.00 | 0.00 | 70 | 1012.9 | |
| 20260505201558 | 45 | 0.0 | 0.0 | 0.00 | 0.00 | 0.00 | 68 | 1012.7 | |
| 20260505200109 | 45 | 0.0 | 0.0 | 0.00 | 0.00 | 0.00 | 65 | 1012.8 | |
| 20260505194603 | 46 | 0.0 | 0.0 | 0.00 | 0.00 | 0.00 | 62 | 1012.8 | |
| 20260505193101 | 47 | 0.0 | 0.0 | 0.00 | 0.00 | 0.00 | 58 | 1012.9 | |
| 20260505191557 | 48 | 0.0 | 0.0 | 0.00 | 0.00 | 0.00 | 56 | 1012.8 | |
| 20260505190051 | 49 | 0.0 | 0.0 | 0.00 | 0.00 | 0.00 | 54 | 1012.5 | |
| 20260505184551 | 50 | 0.0 | 0.0 | 0.00 | 0.00 | 0.00 | 50 | 1012.6 | |
| 20260505183057 | 50 | 0.0 | 0.0 | 0.00 | 0.00 | 0.00 | 47 | 1012.6 | |
| 20260505181557 | 51 | 0.0 | 0.0 | 0.00 | 0.00 | 0.00 | 46 | 1012.5 | |
| 20260505180058 | 51 | 0.0 | 0.0 | 0.00 | 0.00 | 0.00 | 44 | 1012.5 | |
| 20260505174551 | 52 | 0.0 | 0.0 | 0.00 | 0.00 | 0.00 | 47 | 1012.7 | |
| 20260505173051 | 53 | 0.0 | 0.0 | 0.00 | 0.00 | 0.00 | 43 | 1012.6 | |
| 20260505171556 | 53 | 0.0 | 0.0 | 0.00 | 0.00 | 0.00 | 40 | 1012.5 | |
| 20260505170055 | 54 | 0.0 | 0.0 | 0.00 | 0.00 | 0.00 | 39 | 1012.6 | |
| 20260505164600 | 54 | 0.0 | 0.0 | 0.00 | 0.00 | 0.00 | 40 | 1012.5 | |
| 20260505163047 | 54 | 0.0 | 0.0 | 0.00 | 0.00 | 0.00 | 39 | 1012.4 | |
| 20260505161603 | 55 | 0.0 | 0.0 | 0.00 | 0.00 | 0.00 | 35 | 1012.5 | |
| 20260505153055 | 56 | 0.0 | 0.0 | 0.00 | 0.00 | 0.00 | 40 | 1012.3 | |
| 20260505151556 | 56 | 0.0 | 0.0 | 0.00 | 0.00 | 0.00 | 40 | 1012.3 | |
| 20260505150106 | 57 | 0.0 | 0.0 | 0.00 | 0.00 | 0.00 | 38 | 1012.1 | |
| 20260505130111 | 58 | 0.0 | 0.0 | 0.00 | 0.00 | 0.00 | 47 | 1012.2 | |
| 20260505124554 | 58 | 0.0 | 0.0 | 0.00 | 0.00 | 0.00 | 50 | 1012.4 | |
| 20260505123103 | 59 | 0.0 | 0.0 | 0.00 | 0.00 | 0.00 | 52 | 1012.5 | |
| 20260505121553 | 57 | 0.0 | 0.0 | 0.00 | 0.00 | 0.00 | 62 | 1012.5 | |
| 20260505120104 | 56 | 0.0 | 0.0 | 0.00 | 0.00 | 0.00 | 63 | 1012.3 | |
| 20260505114555 | 56 | 0.0 | 0.0 | 0.00 | 0.00 | 0.00 | 63 | 1012.4 | |
| 20260505113050 | 58 | 0.0 | 0.0 | 0.00 | 0.00 | 0.00 | 60 | 1012.4 | |
| 20260505111552 | 57 | 0.0 | 0.0 | 0.00 | 0.00 | 0.00 | 57 | 1012.4 | |
| 20260505101559 | 56 | 0.0 | 0.0 | 0.00 | 0.00 | 0.00 | 61 | 1012.8 | |
| 20260505100050 | 56 | 0.0 | 0.0 | 0.00 | 0.00 | 0.00 | 61 | 1012.8 | |
| 20260505094607 | 56 | 0.0 | 0.0 | 0.00 | 0.00 | 0.00 | 63 | 1013.0 | |
| 20260505093100 | 57 | 0.0 | 0.0 | 0.00 | 0.00 | 0.00 | 62 | 1013.0 | |
| 20260505091559 | 55 | 0.0 | 0.0 | 0.00 | 0.00 | 0.00 | 66 | 1013.1 | |
| 20260505090058 | 55 | 0.0 | 0.0 | 0.00 | 0.00 | 0.00 | 66 | 1013.0 | |
| 20260505084555 | 55 | 0.0 | 0.0 | 0.00 | 0.00 | 0.00 | 66 | 1013.0 | |
| 20260505083102 | 54 | 0.0 | 0.0 | 0.00 | 0.00 | 0.00 | 66 | 1013.1 |